This demonstration page uses our WeatherBlox Daily Observations layout. Learn more.

Left ArrowRight Arrow

34.16533, -84.80231

Hourly Observations for August 5, 2017

Temp ( °F °C ) Dew Point ( °F °C ) Humidity (%) Winds ( mph kmh ) Pressure ( in mb ) Visibility ( mi km ) Precip ( " mm )
12:53 am 00:53 Partly Cloudy 74 23.3 73 22.8 97 97 SW 5 7 29.99 1016 10 16 0.00 0.00
1:53 am 01:53 Mostly Cloudy 73 22.8 73 22.8 100 100 NNW 3 6 30.00 1016 10 16 0.00 0.00
2:53 am 02:53 Mostly Cloudy 73 22.8 72 22.2 96 96 Calm 30.00 1016 10 16 0.00 0.00
3:53 am 03:53 Cloudy 72 22.2 70 21.1 94 94 Calm 30.00 1016 10 16 0.00 0.00
4:53 am 04:53 Clear 70 21.1 68 20 93 93 NNW 3 6 29.99 1016 10 16 0.00 0.00
5:53 am 05:53 Clear 69 20.6 68 20 96 96 Calm 30.00 1016 10 16 0.00 0.00
6:53 am 06:53 Clear 69 20.6 67 19.4 93 93 Calm 30.01 1016 10 16 0.00 0.00
7:53 am 07:53 Sunny 69 20.6 64 17.8 84 84 NNW 6 9 30.03 1017 10 16 0.00 0.00
8:53 am 08:53 Sunny 71 21.7 64 17.8 79 79 VRB 7 11 30.06 1018 10 16 0.00 0.00
9:53 am 09:53 Sunny 74 23.3 65 18.3 74 74 VRB 5 7 30.07 1018 10 16 0.00 0.00
10:53 am 10:53 Sunny 78 25.6 65 18.3 64 64 undefined N/A 30.08 1019 10 16 0.00 0.00
11:53 am 11:53 Sunny 80 26.7 65 18.3 60 60 NNW 6 9 30.06 1018 10 16 0.00 0.00
12:53 pm 12:53 Sunny 83 28.3 64 17.8 53 53 N 7 11 30.05 1018 10 16 0.00 0.00
1:53 pm 13:53 Sunny 83 28.3 65 18.3 55 55 NNW 5 7 30.04 1017 10 16 0.00 0.00
2:53 pm 14:53 Sunny 86 30 66 18.9 51 51 Calm 30.03 1017 10 16 0.00 0.00
3:53 pm 15:53 Sunny 87 30.6 65 18.3 48 48 N 7 11 30.01 1016 10 16 0.00 0.00
4:53 pm 16:53 Partly Cloudy 84 28.9 66 18.9 55 55 Calm 30.02 1017 10 16 0.00 0.00
5:53 pm 17:53 Mostly Sunny 84 28.9 66 18.9 55 55 Calm 30.01 1016 10 16 0.00 0.00
6:53 pm 18:53 Mostly Sunny 84 28.9 66 18.9 55 55 Calm 30.00 1016 10 16 0.00 0.00
7:53 pm 19:53 Partly Cloudy 81 27.2 67 19.4 62 62 Calm 30.01 1016 10 16 0.00 0.00
8:53 pm 20:53 Mostly Clear 74 23.3 69 20.6 85 85 Calm 30.01 1016 10 16 0.00 0.00
9:53 pm 21:53 Cloudy 72 22.2 68 20 87 87 Calm 30.02 1017 10 16 0.00 0.00
10:53 pm 22:53 Partly Cloudy 70 21.1 66 18.9 87 87 Calm 30.03 1017 10 16 0.00 0.00
11:53 pm 23:53 Clear 67 19.4 66 18.9 97 97 Calm 30.03 1017 10 16 0.00 0.00

Powered by AerisWeather